TimeCDT,TemperatureF,Dew PointF,Humidity,Sea Level PressureIn,VisibilityMPH,Wind Direction,Wind SpeedMPH,Gust SpeedMPH,PrecipitationIn,Events,Conditions,WindDirDegrees,DateUTC
12:53 AM,75.9,69.1,79,30.05,10.0,NE,4.6,-,N/A,,Clear,50,2013-08-01 05:53:00
1:53 AM,75.9,69.1,79,30.05,10.0,East,6.9,-,N/A,,Clear,80,2013-08-01 06:53:00
2:53 AM,75.0,69.1,82,30.05,10.0,East,5.8,-,N/A,,Clear,100,2013-08-01 07:53:00
3:53 AM,73.0,69.1,87,30.05,10.0,ENE,3.5,-,N/A,,Clear,60,2013-08-01 08:53:00
4:53 AM,72.0,69.1,91,30.05,10.0,East,5.8,-,N/A,,Clear,80,2013-08-01 09:53:00
5:53 AM,73.0,69.1,87,30.05,10.0,East,5.8,-,N/A,,Clear,90,2013-08-01 10:53:00
6:53 AM,71.1,69.1,93,30.06,9.0,East,6.9,-,N/A,,Clear,80,2013-08-01 11:53:00
7:53 AM,73.9,70.0,87,30.08,10.0,Calm,Calm,-,N/A,,Clear,0,2013-08-01 12:53:00
8:53 AM,75.9,70.0,82,30.09,10.0,ENE,4.6,-,N/A,,Clear,70,2013-08-01 13:53:00
9:53 AM,79.0,70.0,74,30.09,10.0,East,5.8,-,N/A,,Clear,100,2013-08-01 14:53:00
10:53 AM,82.0,69.1,65,30.08,10.0,ENE,3.5,-,N/A,,Scattered Clouds,70,2013-08-01 15:53:00
11:53 AM,84.0,69.1,61,30.08,10.0,East,3.5,-,N/A,,Clear,100,2013-08-01 16:53:00
12:53 PM,87.1,66.0,49,30.05,10.0,Calm,Calm,-,N/A,,Clear,0,2013-08-01 17:53:00
1:53 PM,90.0,64.9,43,30.02,10.0,SSE,6.9,16.1,N/A,,Clear,150,2013-08-01 18:53:00
2:53 PM,91.0,64.9,42,30.00,10.0,SE,6.9,-,N/A,,Clear,130,2013-08-01 19:53:00
3:53 PM,93.0,64.0,38,29.97,10.0,ESE,11.5,-,N/A,,Clear,120,2013-08-01 20:53:00
4:53 PM,93.9,63.0,36,29.96,10.0,SE,10.4,19.6,N/A,,Clear,140,2013-08-01 21:53:00
5:53 PM,93.0,64.0,38,29.92,10.0,SE,12.7,-,N/A,,Clear,130,2013-08-01 22:53:00
6:53 PM,91.0,62.1,38,29.92,10.0,SE,16.1,21.9,N/A,,Clear,130,2013-08-01 23:53:00
7:53 PM,88.0,64.0,45,29.93,10.0,SE,11.5,-,N/A,,Clear,130,2013-08-02 00:53:00
8:53 PM,84.9,64.9,51,29.93,10.0,SE,10.4,-,N/A,,Clear,140,2013-08-02 01:53:00
9:53 PM,82.9,66.9,58,29.93,10.0,SSE,11.5,-,N/A,,Clear,150,2013-08-02 02:53:00
10:53 PM,82.0,68.0,62,29.92,10.0,SSE,11.5,-,N/A,,Clear,150,2013-08-02 03:53:00
11:53 PM,80.1,68.0,67,29.94,10.0,SSE,9.2,-,N/A,,Clear,150,2013-08-02 04:53:00